Location: Lourdes
(43.1000°N, 0.0500°W)
Time: 04:48:45
(UTC+00:00)

DIWATA 2B (PO-101) - Visible Passes

Search period start: 15 June 2021 00:00
Search period end: 25 June 2021 00:00
Orbit: 584 x 600 km, 97.9° (Epoch: 14 June)

Date Brightness Start Highest point End Pass type
(mag) Time Alt. Az. Time Alt. Az. Time Alt. Az.
15 Jun ? 01:06:45 48° SE 01:07:40 63° ENE 01:11:47 10° N visible
15 Jun ? 02:43:20 11° W 02:43:38 11° W 02:44:54 10° WNW visible
16 Jun ? 01:15:36 56° SSE 01:16:24 79° ENE 01:20:34 10° N visible
17 Jun ? 01:24:26 60° S 01:25:10 83° WSW 01:29:20 10° NNW visible
17 Jun ? 23:57:14 10° E 23:58:54 12° ENE 00:00:36 10° NE visible
18 Jun ? 01:33:17 56° SSW 01:33:55 65° WSW 01:38:03 10° NNW visible
19 Jun ? 00:05:32 11° E 00:07:34 15° ENE 00:09:55 10° NNE visible
19 Jun ? 01:42:08 47° SW 01:42:41 51° W 01:46:45 10° NNW visible
20 Jun ? 00:14:23 14° E 00:16:14 18° ENE 00:19:04 10° NNE visible
20 Jun ? 01:50:59 39° WSW 01:51:28 41° W 01:55:25 10° NNW visible
21 Jun ? 00:23:14 17° E 00:24:54 22° ENE 00:28:06 10° NNE visible
21 Jun ? 01:59:50 32° WSW 02:00:16 33° W 02:04:02 10° NNW visible
22 Jun ? 00:32:06 21° ESE 00:33:35 26° ENE 00:37:03 10° N visible
22 Jun ? 02:08:41 26° WSW 02:09:03 26° W 02:12:36 10° NW visible
23 Jun ? 00:40:56 26° ESE 00:42:17 32° ENE 00:45:59 10° N visible
23 Jun ? 02:17:32 21° WSW 02:17:53 21° W 02:21:06 10° NW visible
24 Jun ? 00:49:48 32° ESE 00:50:59 40° ENE 00:54:52 10° N visible
24 Jun ? 02:26:23 17° W 02:26:41 17° W 02:29:30 10° NW visible
